Weather History for KCNO - April, 2014

Change the Weather History Date:

Monday, April 7, 2014

  Actual Average (KONT) Record (KONT)
Temperature  
Mean Temperature 68 °F 61 °F  
Max Temperature 91 °F 73 °F 92 °F (2014)
Min Temperature 46 °F 49 °F 42 °F (1999)
Degree Days  
Heating Degree Days 0 5  
Month to date heating degree days 36  
Since 1 July heating degree days 1405  
Cooling Degree Days 4 1  
Month to date cooling degree days 6  
Year to date cooling degree days 24  
Growing Degree Days 18 (Base 50)    
Moisture  
Dew Point 40 °F    
Average Humidity 43    
Maximum Humidity 77    
Minimum Humidity 11    
Precipitation  
Precipitation 0.00 in 0.03 in 0.63 in (2001)
Month to date precipitation 0.21  
Year to date precipitation 9.23  
Snow  
Snow 0.00 in - - ()
Month to date snowfall  
Since 1 July snowfall  
Snow Depth -    
Sea Level Pressure  
Sea Level Pressure 30.07 in    
Wind  
Wind Speed 3 mph (WSW)    
Max Wind Speed 17 mph    
Max Gust Speed -    
Visibility 9 miles    
Events      
T = Trace of Precipitation, MM = Missing Value Source: NWS Daily Summary

Daily Weather History Graph

Daily Weather History Graph

Search for Another Location

Airport or City:

Trip Planner

Search our weather history database for the weather conditions in past years. The results will help you decide how hot, cold, wet, or windy it might be!

Date:

Astronomy

Apr. 07, 2014 Rise Set
Actual Time 6:29 AM PDT 7:15 PM PDT
Civil Twilight 6:04 AM PDT 7:41 PM PDT
Nautical Twilight 5:34 AM PDT 8:11 PM PDT
Astronomical Twilight 5:03 AM PDT 8:42 PM PDT
Moon 12:36 PM PDT (4/7) 1:49 AM PDT (4/7)
Length of Visible Light 13h 36m
Length of Day
12h 46m
First Quarter, 54% of the Moon is Illuminated
Apr 7
First Quarter
Apr 15
Full
Apr 22
Last Quarter
Apr 28
New
May 6
First Quarter

Hourly Weather History & Observations

Time (PDT) Temp. Dew Point Humidity Pressure Visibility Wind Dir Wind Speed Gust Speed Precip Events Conditions
12:53 AM 52.0 °F 41.0 °F 66% 30.07 in 7.0 mi Calm Calm - N/A   Clear
1:53 AM 53.1 °F 39.9 °F 61% 30.07 in 9.0 mi NNW 3.5 mph - N/A   Clear
2:53 AM 48.9 °F 39.9 °F 71% 30.08 in 8.0 mi Calm Calm - N/A   Clear
3:53 AM 53.1 °F 39.0 °F 59% 30.06 in 8.0 mi ENE 5.8 mph - N/A   Clear
4:53 AM 46.9 °F 39.0 °F 74% 30.06 in 8.0 mi NNE 3.5 mph - N/A   Clear
5:53 AM 48.0 °F 39.0 °F 71% 30.07 in 8.0 mi Calm Calm - N/A   Clear
6:53 AM 46.9 °F 39.9 °F 77% 30.09 in 10.0 mi Calm Calm - N/A   Clear
7:53 AM 55.9 °F 44.1 °F 64% 30.11 in 10.0 mi Calm Calm - N/A   Clear
8:53 AM 64.0 °F 44.1 °F 48% 30.11 in 10.0 mi Calm Calm - N/A   Clear
9:53 AM 70.0 °F 43.0 °F 38% 30.11 in 10.0 mi Calm Calm - N/A   Clear
10:53 AM 77.0 °F 43.0 °F 30% 30.11 in 10.0 mi Variable 3.5 mph - N/A   Clear
11:53 AM 82.9 °F 42.1 °F 24% 30.09 in 10.0 mi Calm Calm - N/A   Clear
12:53 PM 88.0 °F 32.0 °F 14% 30.08 in 10.0 mi WSW 3.5 mph - N/A   Clear
1:53 PM 91.0 °F 30.0 °F 11% 30.06 in 10.0 mi Variable 3.5 mph - N/A   Clear
2:53 PM 90.0 °F 45.0 °F 21% 30.04 in 10.0 mi SW 17.3 mph - N/A   Clear
3:53 PM 88.0 °F 44.1 °F 22% 30.03 in 10.0 mi SW 16.1 mph - N/A   Clear
4:53 PM 86.0 °F 41.0 °F 20% 30.03 in 10.0 mi SW 16.1 mph - N/A   Clear
5:53 PM 84.0 °F 42.1 °F 23% 30.04 in 10.0 mi WSW 12.7 mph - N/A   Clear
6:53 PM 79.0 °F 37.0 °F 22% 30.04 in 10.0 mi WSW 10.4 mph - N/A   Clear
7:53 PM 71.1 °F 39.0 °F 31% 30.04 in 10.0 mi SW 4.6 mph - N/A   Clear
8:53 PM 69.1 °F 39.0 °F 33% 30.06 in 10.0 mi Calm Calm - N/A   Clear
9:53 PM 66.0 °F 39.9 °F 38% 30.08 in 8.0 mi ENE 4.6 mph - N/A   Clear
10:53 PM 61.0 °F 42.1 °F 50% 30.09 in 8.0 mi Calm Calm - N/A   Clear
11:53 PM 59.0 °F 43.0 °F 55% 30.10 in 7.0 mi Calm Calm - N/A   Clear